Tracking 29892 objects as of 21-Nov-2024
HD Live streaming from Space Station
objects crossing your sky now

NOAA 16 DEB

Track NOAA 16 DEB now!
10-day predictions


NORAD ID: 41062
Int'l Code: 2000-055V
Perigee: 831.6 km
Apogee: 871.0 km
Inclination: 98.7 °
Period: 101.8 minutes
Semi major axis: 7222 km
RCS: Unknown
Launch date: September 21, 2000
Source: United States (US)
Launch site: AIR FORCE WESTERN TEST RANGE (AFWTR)

Note: This is SATELLITE DEBRIS
Your satellite tracking list
Your tracking list is empty




NASA's NSSDC Master Catalog

Two Line Element Set (TLE):
1 41062U 00055V   24325.56702180  .00004310  00000-0  22633-2 0  9994
2 41062  98.7041   0.8570 0027260  38.5604 321.7510 14.14446855461841
Source of the keplerian elements: AFSPC